When you browse on this site, cookies collect data to enhance your experience and personalize the content and advertising you see.
Visit our Privacy Policy to learn more. By continuing to use the site, you agree to this use of cookies and data.
EN

Hourly Weather Mizyakivs'ki Khutory

Today, 5 August, Wednesday

Time Temperature Precipitation Wind Pressure Humidity
00:00 +18°C° 0 mm 3 mps 735 mmHg 56%
01:00 +18°C° 0 mm 2 mps 735 mmHg 57%
02:00 +17°C° 0 mm 2 mps 735 mmHg 59%
03:00 +17°C° 0 mm 2 mps 735 mmHg 60%
04:00 +17°C° 0 mm 2 mps 735 mmHg 61%
05:00 +16°C° 0 mm 2 mps 736 mmHg 63%
06:00 +18°C° 0 mm 2 mps 736 mmHg 60%
07:00 +20°C° 0 mm 2 mps 736 mmHg 58%
08:00 +23°C° 0 mm 2 mps 737 mmHg 55%
09:00 +25°C° 0 mm 2 mps 737 mmHg 52%
10:00 +27°C° 0 mm 3 mps 737 mmHg 48%
11:00 +28°C° 0 mm 3 mps 738 mmHg 45%
12:00 +29°C° 0 mm 3 mps 738 mmHg 43%
13:00 +29°C° 0 mm 2 mps 738 mmHg 41%
14:00 +30°C° 0 mm 2 mps 738 mmHg 39%
15:00 +30°C° 0 mm 2 mps 738 mmHg 42%
16:00 +29°C° 0 mm 2 mps 737 mmHg 44%
17:00 +29°C° 0 mm 2 mps 737 mmHg 46%
18:00 +27°C° 0 mm 2 mps 737 mmHg 49%
19:00 +25°C° 0 mm 2 mps 737 mmHg 52%
20:00 +24°C° 0 mm 2 mps 737 mmHg 55%
21:00 +23°C° 0 mm 2 mps 738 mmHg 58%
22:00 +21°C° 0 mm 2 mps 738 mmHg 60%
23:00 +20°C° 0 mm 3 mps 738 mmHg 63%

Tomorrow, 6 August, Thursday

Time Temperature Precipitation Wind Pressure Humidity
00:00 +20°C° 0 mm 2 mps 738 mmHg 63%
01:00 +19°C° 0 mm 2 mps 739 mmHg 63%
02:00 +20°C° 0 mm 1 mps 739 mmHg 64%
03:00 +18°C° 0 mm 2 mps 739 mmHg 64%
04:00 +18°C° 0 mm 2 mps 739 mmHg 65%
05:00 +18°C° 0 mm 2 mps 739 mmHg 65%
06:00 +19°C° 0 mm 2 mps 740 mmHg 63%
07:00 +21°C° 0 mm 2 mps 740 mmHg 61%
08:00 +24°C° 0 mm 2 mps 740 mmHg 59%
09:00 +26°C° 0 mm 3 mps 741 mmHg 55%
10:00 +27°C° 0 mm 3 mps 741 mmHg 50%
11:00 +29°C° 0 mm 3 mps 741 mmHg 46%
12:00 +29°C° 0 mm 4 mps 741 mmHg 45%
13:00 +29°C° 0 mm 4 mps 741 mmHg 45%
14:00 +30°C° 0 mm 4 mps 741 mmHg 45%
15:00 +29°C° 0 mm 4 mps 741 mmHg 47%
16:00 +29°C° 0 mm 4 mps 741 mmHg 49%
17:00 +29°C° 0 mm 4 mps 741 mmHg 51%
18:00 +27°C° 0 mm 3 mps 741 mmHg 55%
19:00 +25°C° 0 mm 3 mps 741 mmHg 59%
20:00 +23°C° 0 mm 2 mps 741 mmHg 63%
21:00 +21°C° 0 mm 2 mps 741 mmHg 65%
22:00 +21°C° 0 mm 2 mps 741 mmHg 67%
23:00 +20°C° 0 mm 2 mps 741 mmHg 69%

Day after tomorrow, 7 August, Friday

Time Temperature Precipitation Wind Pressure Humidity
00:00 +19°C° 0 mm 2 mps 741 mmHg 71%
01:00 +19°C° 0 mm 2 mps 741 mmHg 74%
02:00 +18°C° 0 mm 2 mps 741 mmHg 76%
03:00 +18°C° 0 mm 2 mps 741 mmHg 78%
04:00 +18°C° 0 mm 3 mps 741 mmHg 80%
05:00 +17°C° 0 mm 3 mps 741 mmHg 82%
06:00 +19°C° 0 mm 3 mps 742 mmHg 78%
07:00 +21°C° 0 mm 3 mps 742 mmHg 73%
08:00 +24°C° 0 mm 3 mps 742 mmHg 68%
09:00 +25°C° 0 mm 4 mps 742 mmHg 64%
10:00 +27°C° 0 mm 4 mps 742 mmHg 60%
11:00 +28°C° 0 mm 4 mps 742 mmHg 56%
12:00 +29°C° 0.1 mm 4 mps 742 mmHg 56%
13:00 +29°C° 0.1 mm 4 mps 742 mmHg 56%
14:00 +29°C° 0.1 mm 4 mps 742 mmHg 56%
15:00 +29°C° 0.4 mm 4 mps 741 mmHg 59%
16:00 +28°C° 0.4 mm 5 mps 741 mmHg 62%
17:00 +28°C° 0.4 mm 5 mps 741 mmHg 64%
18:00 +26°C° 0.2 mm 4 mps 741 mmHg 67%
19:00 +23°C° 0.2 mm 4 mps 741 mmHg 69%
20:00 +21°C° 0.2 mm 4 mps 741 mmHg 72%
21:00 +20°C° 0 mm 3 mps 741 mmHg 75%
22:00 +20°C° 0 mm 3 mps 741 mmHg 78%
23:00 +19°C° 0 mm 3 mps 741 mmHg 81%

8 August, Saturday

Time Temperature Precipitation Wind Pressure Humidity
00:00 +18°C° 0 mm 3 mps 741 mmHg 83%
01:00 +18°C° 0 mm 3 mps 741 mmHg 85%
02:00 +17°C° 0 mm 3 mps 741 mmHg 88%
03:00 +17°C° 0 mm 3 mps 741 mmHg 89%
04:00 +16°C° 0 mm 3 mps 741 mmHg 91%
05:00 +16°C° 0 mm 3 mps 741 mmHg 92%
06:00 +18°C° 0 mm 3 mps 741 mmHg 86%
07:00 +19°C° 0 mm 4 mps 741 mmHg 79%
08:00 +21°C° 0 mm 4 mps 741 mmHg 73%
09:00 +22°C° 0 mm 4 mps 741 mmHg 68%
10:00 +23°C° 0 mm 4 mps 741 mmHg 62%
11:00 +26°C° 0 mm 5 mps 741 mmHg 56%
12:00 +26°C° 0 mm 5 mps 741 mmHg 55%
13:00 +26°C° 0 mm 5 mps 740 mmHg 53%
14:00 +27°C° 0 mm 5 mps 740 mmHg 52%
15:00 +27°C° 0 mm 5 mps 740 mmHg 53%
16:00 +26°C° 0 mm 5 mps 739 mmHg 53%
17:00 +26°C° 0 mm 4 mps 739 mmHg 54%
18:00 +23°C° 0 mm 4 mps 739 mmHg 59%
19:00 +21°C° 0 mm 3 mps 739 mmHg 64%
20:00 +20°C° 0 mm 3 mps 739 mmHg 69%
21:00 +19°C° 0 mm 3 mps 739 mmHg 71%
22:00 +18°C° 0 mm 2 mps 739 mmHg 74%
23:00 +17°C° 0 mm 2 mps 739 mmHg 76%

9 August, Sunday

Time Temperature Precipitation Wind Pressure Humidity
00:00 +17°C° 0 mm 2 mps 738 mmHg 78%
01:00 +17°C° 0 mm 2 mps 738 mmHg 80%
02:00 +16°C° 0 mm 2 mps 738 mmHg 81%
03:00 +16°C° 0 mm 2 mps 738 mmHg 83%
04:00 +15°C° 0 mm 2 mps 738 mmHg 85%
05:00 +15°C° 0 mm 2 mps 738 mmHg 87%
06:00 +17°C° 0 mm 2 mps 738 mmHg 81%
07:00 +19°C° 0 mm 3 mps 738 mmHg 76%
08:00 +21°C° 0 mm 3 mps 738 mmHg 70%
09:00 +22°C° 0 mm 3 mps 738 mmHg 64%
10:00 +24°C° 0 mm 3 mps 738 mmHg 58%
11:00 +25°C° 0 mm 3 mps 738 mmHg 52%
12:00 +26°C° 0 mm 3 mps 738 mmHg 51%
13:00 +26°C° 0 mm 3 mps 737 mmHg 50%
14:00 +27°C° 0 mm 3 mps 737 mmHg 48%
15:00 +26°C° 0 mm 3 mps 737 mmHg 50%
16:00 +26°C° 0 mm 3 mps 737 mmHg 51%
17:00 +26°C° 0 mm 3 mps 736 mmHg 53%
18:00 +24°C° 0 mm 2 mps 736 mmHg 58%
19:00 +23°C° 0 mm 2 mps 736 mmHg 63%
20:00 +21°C° 0 mm 1 mps 736 mmHg 69%
21:00 +20°C° 0 mm 1 mps 736 mmHg 70%
22:00 +20°C° 0 mm 1 mps 736 mmHg 72%
23:00 +17°C° 0 mm 0 mps 736 mmHg 74%

10 August, Monday

Time Temperature Precipitation Wind Pressure Humidity
00:00 +17°C° 0 mm 0 mps 736 mmHg 74%
01:00 +17°C° 0 mm 0 mps 736 mmHg 75%
02:00 +17°C° 0 mm 0 mps 736 mmHg 76%
03:00 +16°C° 0 mm 0 mps 736 mmHg 77%
04:00 +16°C° 0 mm 0 mps 736 mmHg 79%
05:00 +15°C° 0 mm 0 mps 736 mmHg 81%
06:00 +17°C° 0 mm 0 mps 736 mmHg 75%
07:00 +19°C° 0 mm 0 mps 736 mmHg 70%
08:00 +23°C° 0 mm 1 mps 737 mmHg 64%
09:00 +24°C° 0 mm 1 mps 737 mmHg 58%
10:00 +25°C° 0 mm 1 mps 737 mmHg 51%
11:00 +26°C° 0 mm 2 mps 737 mmHg 45%
12:00 +27°C° 0 mm 2 mps 736 mmHg 43%
13:00 +27°C° 0 mm 2 mps 736 mmHg 40%
14:00 +28°C° 0 mm 2 mps 736 mmHg 38%
15:00 +28°C° 0 mm 2 mps 736 mmHg 40%
16:00 +28°C° 0 mm 2 mps 736 mmHg 41%
17:00 +28°C° 0 mm 2 mps 736 mmHg 43%
18:00 +26°C° 0 mm 2 mps 736 mmHg 49%
19:00 +24°C° 0 mm 2 mps 736 mmHg 55%
20:00 +21°C° 0 mm 2 mps 736 mmHg 62%
21:00 +21°C° 0 mm 1 mps 736 mmHg 64%
22:00 +21°C° 0 mm 1 mps 736 mmHg 66%
23:00 +20°C° 0 mm 1 mps 736 mmHg 68%
Show more